Dewpoint
68 67 73 74 73 73 70 72 71 70 72 72 71 72 72 72 73 71 72 72 72 71 71 71 71 71 70 72 73 72 72 72 74 74 74 73 74 75 74 74 73 72 73
74 71 69 71 72 74 73 71 72 74 72 73 71 72 70 72 72 72 72 71 73 73 72 71 72 71 71 71 72 73 74 75 75 74 75 74 75 75 74 73 73 73 74
73 71 69 69 70 72 73 74 75 74 72 72 71 72 73 72 71 72 72 71 72 73 72 73 74 73 73 72 72 73 75 76 75 76 75 75 75 75 74 74 75 74 74
72 71 71 70 72 73 74 73 74 71 72 73 71 72 71 72 71 71 72 73 72 70 72 74 74 75 73 73 73 74 76 75 76 76 75 76 75 75 75 75 75 75 75
71 71 70 70 72 74 73 73 74 74 72 70 71 73 72 72 69 68 71 71 71 71 70 73 74 74 73 73 73 75 76 76 76 76 76 76 75 75 75 76 76 76 76
72 72 70 70 72 71 74 73 74 72 72 73 70 70 71 72 71 70 69 70 70 70 69 70 72 73 74 74 75 75 76 76 76 76 76 76 75 75 75 76 76 76 76
73 73 72 69 71 71 73 73 74 73 70 71 71 70 67 70 70 69 68 69 69 69 68 70 71 70 73 75 74 75 76 76 77 76 76 76 75 75 76 75 75 75 75
73 71 73 73 72 70 75 74 74 72 70 71 70 71 68 70 70 68 70 66 67 68 67 69 69 69 71 71 73 75 76 76 77 76 76 75 75 76 75 75 75 75 75
72 71 72 74 73 73 70 74 74 73 71 72 72 70 66 64 68 70 69 69 68 68 68 68 68 69 69 70 71 73 75 75 76 77 77 76 76 75 75 75 75 75 74
73 73 73 73 74 73 72 75 73 72 72 71 72 73 70 68 65 64 69 64 70 66 68 68 68 68 68 70 72 71 73 74 75 76 77 76 76 75 75 75 75 74 75
73 73 73 74 75 73 73 74 72 74 75 73 71 70 70 68 68 66 64 69 71 70 70 69 68 68 69 70 69 71 73 72 72 74 75 76 76 76 76 76 76 76 76
74 73 73 74 75 74 74 74 75 75 75 75 74 72 69 68 68 68 67 66 67 68 70 72 69 70 69 69 71 72 73 73 72 72 73 74 75 76 76 76 77 77 77
73 74 75 75 73 74 74 75 75 76 75 75 75 73 73 71 72 71 66 64 67 68 70 71 71 71 70 68 68 71 73 72 71 71 71 72 73 74 75 76 76 76 76
72 74 75 74 74 75 74 76 73 73 74 75 74 75 73 73 70 70 68 66 66 67 68 67 69 69 70 69 71 71 72 71 71 71 70 71 71 72 73 74 74 74 75
73 75 74 75 74 75 74 75 73 73 74 74 74 74 73 71 70 70 68 69 69 66 66 65 65 68 69 72 71 71 69 71 70 70 70 70 70 70 71 71 72 72 73
75 75 75 75 74 74 74 75 73 73 73 73 71 73 74 73 73 70 72 69 70 67 66 69 67 69 72 73 74 73 71 72 70 70 69 69 69 70 70 71 71 71 71
77 76 76 75 75 74 75 75 74 73 74 73 73 73 73 75 72 70 70 70 70 68 68 70 70 71 68 68 67 71 74 73 71 68 68 68 68 68 69 69 69 69 69
77 75 75 75 75 75 75 73 73 71 72 72 72 73 72 70 74 73 71 71 70 71 70 69 71 71 69 65 65 66 70 69 71 69 68 67 67 67 67 67 67 67 67
76 75 75 75 75 74 73 73 73 73 73 73 72 72 72 72 71 71 73 72 71 71 70 69 68 70 70 65 67 69 72 73 73 71 67 67 67 67 66 66 65 65 64
72 73 75 75 75 75 74 73 73 73 73 72 73 73 72 72 72 72 72 72 70 71 71 70 71 69 70 70 69 71 73 75 72 69 69 70 68 68 67 65 65 64 62
71 72 72 72 72 72 71 74 73 73 73 73 72 73 71 72 70 70 71 72 73 71 69 68 69 68 66 66 67 71 70 72 71 73 71 72 72 71 70 67 69 68 65
71 71 71 71 71 65 66 68 70 73 73 72 72 73 72 71 71 68 68 68 71 72 71 69 67 69 69 68 68 71 70 68 66 73 71 67 71 70 70 69 68 65 65
70 70 70 70 70 70 64 65 68 67 68 68 69 70 71 68 70 73 70 67 67 67 68 71 70 69 69 71 72 71 71 71 70 72 71 68 69 70 70 69 65 64 64
69 69 69 69 69 68 63 62 64 69 68 68 68 68 68 68 71 73 72 71 71 72 71 70 69 69 70 71 73 72 71 72 72 72 73 69 72 70 71 69 64 64 65
67 67 67 68 69 68 63 62 64 68 66 67 68 69 68 68 65 64 71 71 71 70 68 65 66 65 64 64 67 72 69 70 68 68 71 70 69 69 72 72 72 66 63
63 63 64 65 64 65 62 60 61 65 65 64 67 67 64 64 61 61 65 66 67 69 71 72 72 69 66 67 65 69 68 68 68 68 69 67 67 67 69 71 71 71 68
Lifted_Index
-1 -1 -2 -2 -2 -2 -2 -3 -3 -3 -3 -3 -3 -2 -2 -2 -2 -2 -2 -2 -2 -2 -2 -2 -2 -2 -3 -4 -4 -5 -5 -5 -5 -5 -5 -4 -4 -5 -5 -5 -4 -4 -4
-2 -1 -1 -1 -2 -2 -2 -3 -3 -3 -3 -3 -3 -3 -2 -2 -2 -2 -2 -2 -2 -2 -2 -2 -3 -3 -3 -4 -4 -5 -5 -6 -6 -6 -5 -5 -5 -5 -5 -5 -5 -4 -4
-2 -2 -1 -1 -2 -2 -3 -3 -3 -3 -3 -3 -3 -3 -3 -3 -3 -3 -2 -3 -3 -3 -2 -3 -3 -3 -4 -4 -4 -5 -6 -6 -6 -6 -6 -6 -6 -6 -5 -5 -5 -5 -5
-2 -2 -1 -1 -2 -3 -3 -3 -3 -3 -3 -3 -3 -2 -3 -3 -3 -3 -3 -3 -3 -3 -3 -3 -4 -4 -4 -4 -4 -5 -6 -6 -6 -6 -6 -6 -6 -6 -6 -6 -6 -6 -6
-2 -2 -1 -1 -2 -3 -3 -3 -3 -3 -3 -3 -3 -3 -3 -3 -3 -3 -3 -3 -3 -3 -3 -3 -4 -4 -4 -4 -5 -5 -6 -6 -7 -7 -7 -6 -6 -6 -6 -6 -6 -6 -6
-2 -2 -1 -1 -2 -3 -3 -4 -4 -3 -3 -3 -3 -3 -3 -3 -3 -2 -2 -3 -3 -3 -3 -3 -3 -4 -4 -4 -5 -5 -6 -7 -7 -7 -7 -7 -6 -6 -6 -6 -6 -6 -6
-2 -2 -2 -1 -2 -3 -3 -4 -4 -3 -3 -3 -3 -3 -2 -3 -3 -3 -2 -3 -3 -3 -3 -3 -3 -3 -4 -4 -5 -5 -6 -7 -7 -7 -7 -7 -6 -6 -6 -6 -6 -5 -5
-2 -2 -2 -2 -2 -3 -3 -4 -4 -3 -2 -2 -3 -3 -2 -3 -3 -3 -2 -2 -3 -3 -3 -3 -3 -3 -3 -4 -4 -5 -6 -6 -7 -7 -6 -6 -6 -6 -6 -5 -5 -5 -4
-2 -2 -2 -3 -3 -3 -3 -4 -4 -3 -3 -3 -3 -3 -3 -2 -3 -3 -2 -2 -2 -2 -3 -3 -3 -3 -3 -3 -3 -4 -5 -6 -6 -6 -6 -6 -6 -5 -5 -5 -4 -4 -4
-3 -3 -3 -3 -4 -4 -4 -4 -4 -4 -4 -4 -3 -3 -3 -2 -2 -2 -1 -1 -2 -3 -3 -3 -3 -3 -3 -3 -3 -3 -4 -4 -5 -5 -6 -6 -5 -5 -4 -4 -4 -4 -4
-4 -4 -4 -4 -4 -4 -4 -4 -4 -4 -4 -4 -4 -3 -2 -1 -1 -1 -1 -2 -2 -3 -3 -3 -3 -3 -3 -3 -3 -3 -3 -3 -3 -4 -5 -5 -5 -4 -4 -4 -4 -4 -4
-5 -4 -4 -4 -4 -4 -4 -4 -4 -4 -5 -5 -4 -4 -3 -2 -1 -2 -1 -1 -2 -3 -3 -3 -3 -3 -3 -3 -3 -3 -3 -2 -2 -3 -3 -4 -4 -4 -4 -4 -4 -4 -4
-5 -5 -5 -5 -5 -5 -5 -4 -4 -5 -5 -5 -5 -5 -4 -3 -2 -2 -2 -1 -2 -2 -3 -3 -3 -3 -3 -3 -2 -2 -2 -2 -2 -2 -2 -2 -3 -3 -4 -4 -4 -4 -4
-5 -5 -5 -5 -5 -5 -4 -4 -5 -5 -5 -5 -5 -5 -5 -4 -3 -3 -2 -2 -2 -2 -2 -2 -1 -2 -2 -3 -3 -2 -2 -2 -1 -1 -1 -1 -2 -2 -2 -3 -3 -3 -3
-5 -5 -5 -5 -5 -5 -4 -5 -5 -5 -5 -5 -5 -5 -5 -5 -4 -4 -3 -3 -2 -2 -2 -1 -1 -1 -2 -3 -3 -3 -3 -2 -2 -2 -1 -1 -1 -1 -1 -1 -2 -2 -2
-6 -6 -6 -5 -5 -5 -5 -5 -5 -5 -5 -5 -5 -5 -5 -5 -5 -4 -4 -3 -3 -3 -3 -2 -1 -1 -1 -2 -4 -4 -4 -3 -3 -2 -2 -2 -1 -1 -0 -0 -1 -1 -1
-6 -5 -5 -5 -5 -5 -5 -5 -4 -4 -4 -4 -4 -4 -5 -5 -5 -5 -4 -4 -3 -3 -3 -3 -3 -2 -1 -1 -2 -3 -4 -4 -3 -3 -3 -2 -2 -2 -1 -0 -0 -0 -0
-5 -5 -5 -5 -5 -5 -5 -4 -4 -4 -4 -4 -4 -4 -4 -4 -4 -4 -4 -4 -4 -4 -3 -3 -3 -3 -2 -2 -2 -2 -3 -4 -4 -4 -3 -3 -3 -3 -2 -1 -1 -1 -1
-4 -4 -4 -4 -4 -4 -4 -4 -4 -4 -4 -4 -4 -4 -4 -4 -4 -4 -4 -4 -4 -4 -4 -4 -4 -3 -3 -2 -2 -3 -4 -5 -5 -4 -4 -4 -3 -3 -3 -2 -2 -1 -1
-2 -3 -3 -3 -3 -4 -4 -4 -4 -4 -4 -4 -4 -4 -4 -4 -4 -4 -4 -4 -4 -4 -4 -4 -4 -4 -3 -3 -3 -4 -4 -5 -5 -5 -5 -4 -3 -3 -3 -3 -2 -2 -1
-1 -1 -2 -2 -2 -2 -3 -3 -3 -4 -4 -4 -4 -4 -4 -4 -4 -3 -4 -4 -4 -4 -4 -3 -3 -4 -4 -3 -3 -4 -4 -4 -5 -5 -5 -4 -3 -3 -3 -3 -2 -2 -2
-1 -1 -1 -1 -1 -1 -1 -1 -1 -2 -3 -3 -3 -3 -4 -4 -3 -3 -3 -3 -4 -4 -3 -3 -3 -3 -3 -3 -3 -3 -4 -4 -4 -5 -5 -3 -2 -2 -3 -2 -2 -2 -2
0 -0 -0 -0 -0 -0 1 1 1 -0 -1 -1 -1 -2 -3 -3 -3 -4 -4 -3 -3 -3 -3 -3 -3 -3 -3 -3 -3 -3 -4 -4 -4 -4 -4 -3 -2 -2 -3 -2 -1 -1 -1
1 1 0 0 0 0 1 2 2 1 0 -0 -0 -1 -1 -2 -3 -3 -4 -4 -4 -4 -3 -3 -3 -3 -3 -3 -3 -3 -3 -4 -4 -4 -5 -4 -4 -3 -3 -2 -2 -1 -1
2 2 1 1 1 1 1 2 2 1 1 0 -0 -0 -1 -1 -1 -2 -2 -3 -3 -4 -4 -4 -3 -3 -2 -2 -2 -3 -3 -3 -4 -4 -5 -5 -5 -5 -4 -3 -3 -2 -2
3 3 2 2 2 2 2 2 2 2 1 1 0 -0 -0 -0 0 -0 -1 -2 -3 -3 -4 -4 -3 -3 -2 -2 -2 -2 -2 -3 -3 -4 -5 -5 -5 -5 -4 -3 -3 -2 -2